Hauptseite
METAR-TAF:

METAR-TAF

Flughäfen :

Prague, Tschechien

Breite: 50-12-59N, Länge: 014-23-42E, Höhe: 280 m

Beobachtung

Neuester Wetterbericht von vor 49 Minuten, um 09:00 UTC
Wind 8 kt aus Südwest, variierte zwischen Süd/Südost und West
Temperatur 23°C
Luftfeuchtigkeit 53%
Luftdruck 1006 hPa
Sichtweite 10 km oder mehr
Aufgelockert bewölkt in der Höhe von 3100 ft
Aufgelockert bewölkt in der Höhe von 6800 ft

METAR: LKVO 240900Z 23008KT 160V260 9999 SCT031 SCT068 23/13 Q1006

Zeit: 11:49 (09:49 UTC)


TAF: fehlend

Wetterbeobachtungen und Prognosen von mehr als 4000 Flughäfen (METAR und TAF Bericht).

Die verfügbaren Stationen werden durch gelbe und rote Markierungen auf der Karte dargestellt.

Führen Sie die Maus auf sie, um den Namen der Station zu sehen.

Darauf klicken, um die Beobachtung von Wetterbeobachtungen und Prognosen zu sehen.

Um die Karte zu ändern : klicken Sie auf den grünen Tasten mit einem schwarzen Kreuz Zum Vergrößern, auf den grünen Button mit einem Gedankenstrich zu verkleinern, oder auf die grünen Pfeile für benachbarte Karten.


METAR-TAF: